Year,Month,Day,Hour,Minute,Value (Times are PST for temperature in C)
2012,09,20,00,00,11.10
2012,09,20,00,01,11.10
2012,09,20,00,02,11.10
2012,09,20,00,03,11.10
2012,09,20,00,04,11.10
2012,09,20,00,05,11.10
2012,09,20,00,06,11.00
2012,09,20,00,07,11.00
2012,09,20,00,08,11.00
2012,09,20,00,09,11.00
2012,09,20,00,10,11.00
2012,09,20,00,11,11.00
2012,09,20,00,12,11.00
2012,09,20,00,13,11.00
2012,09,20,00,14,10.90
2012,09,20,00,15,10.90
2012,09,20,00,16,10.90
2012,09,20,00,17,10.90
2012,09,20,00,18,10.90
2012,09,20,00,19,10.90
2012,09,20,00,20,10.90
2012,09,20,00,21,10.90
2012,09,20,00,22,10.90
2012,09,20,00,23,10.90
2012,09,20,00,24,10.90
2012,09,20,00,25,10.90
2012,09,20,00,26,10.90
2012,09,20,00,27,10.90
2012,09,20,00,28,10.90
2012,09,20,00,29,10.90
2012,09,20,00,30,10.90
2012,09,20,00,31,10.90
2012,09,20,00,32,10.90
2012,09,20,00,33,10.90
2012,09,20,00,34,10.90
2012,09,20,00,35,10.90
2012,09,20,00,36,10.90
2012,09,20,00,37,10.80
2012,09,20,00,38,10.80
2012,09,20,00,39,10.80
2012,09,20,00,40,10.80
2012,09,20,00,41,10.80
2012,09,20,00,42,10.80
2012,09,20,00,43,10.80
2012,09,20,00,44,10.80
2012,09,20,00,45,10.80
2012,09,20,00,46,10.80
2012,09,20,00,47,10.80
2012,09,20,00,48,10.80
2012,09,20,00,49,10.80
2012,09,20,00,50,10.80
2012,09,20,00,51,10.70
2012,09,20,00,52,10.70
2012,09,20,00,53,10.70
2012,09,20,00,54,10.70
2012,09,20,00,55,10.70
2012,09,20,00,56,10.70
2012,09,20,00,57,10.70
2012,09,20,00,58,10.70
2012,09,20,00,59,10.70
2012,09,20,01,00,10.70
2012,09,20,01,01,10.70
2012,09,20,01,02,10.70
2012,09,20,01,03,10.70
2012,09,20,01,04,10.60
2012,09,20,01,05,10.60
2012,09,20,01,06,10.60
2012,09,20,01,07,10.60
2012,09,20,01,08,10.60
2012,09,20,01,09,10.50
2012,09,20,01,10,10.50
2012,09,20,01,11,10.50
2012,09,20,01,12,10.50
2012,09,20,01,13,10.50
2012,09,20,01,14,10.50
2012,09,20,01,15,10.50
2012,09,20,01,16,10.40
2012,09,20,01,17,10.40
2012,09,20,01,18,10.40
2012,09,20,01,19,10.40
2012,09,20,01,20,10.50
2012,09,20,01,21,10.50
2012,09,20,01,22,10.50
2012,09,20,01,23,10.50
2012,09,20,01,24,10.50
2012,09,20,01,25,10.50
2012,09,20,01,26,10.40
2012,09,20,01,27,10.40
2012,09,20,01,28,10.40
2012,09,20,01,29,10.40
2012,09,20,01,30,10.40
2012,09,20,01,31,10.40
2012,09,20,01,32,10.40
2012,09,20,01,33,10.40
2012,09,20,01,34,10.40
2012,09,20,01,35,10.40
2012,09,20,01,36,10.30
2012,09,20,01,37,10.30
2012,09,20,01,38,10.30
2012,09,20,01,39,10.30
2012,09,20,01,40,10.30
2012,09,20,01,41,10.30
2012,09,20,01,42,10.30
2012,09,20,01,43,10.30
2012,09,20,01,44,10.30
2012,09,20,01,45,10.30
2012,09,20,01,46,10.30
2012,09,20,01,47,10.30
2012,09,20,01,48,10.30
2012,09,20,01,49,10.30
2012,09,20,01,50,10.30
2012,09,20,01,51,10.30
2012,09,20,01,52,10.30
2012,09,20,01,53,10.30
2012,09,20,01,54,10.30
2012,09,20,01,55,10.30
2012,09,20,01,56,10.30
2012,09,20,01,57,10.30
2012,09,20,01,58,10.30
2012,09,20,01,59,10.30
2012,09,20,02,00,10.30
2012,09,20,02,01,10.30
2012,09,20,02,02,10.30
2012,09,20,02,03,10.30
2012,09,20,02,04,10.30
2012,09,20,02,05,10.30
2012,09,20,02,06,10.30
2012,09,20,02,07,10.30
2012,09,20,02,08,10.30
2012,09,20,02,09,10.30
2012,09,20,02,10,10.30
2012,09,20,02,11,10.20
2012,09,20,02,12,10.20
2012,09,20,02,13,10.20
2012,09,20,02,14,10.20
2012,09,20,02,15,10.20
2012,09,20,02,16,10.20
2012,09,20,02,17,10.20
2012,09,20,02,18,10.20
2012,09,20,02,19,10.20
2012,09,20,02,20,10.10
2012,09,20,02,21,10.10
2012,09,20,02,22,10.10
2012,09,20,02,23,10.10
2012,09,20,02,24,10.10
2012,09,20,02,25,10.10
2012,09,20,02,26,10.10
2012,09,20,02,27,10.10
2012,09,20,02,28,10.10
2012,09,20,02,29,10.10
2012,09,20,02,30,10.10
2012,09,20,02,31,10.10
2012,09,20,02,32,10.10
2012,09,20,02,33,10.00
2012,09,20,02,34,10.00
2012,09,20,02,35,10.00
2012,09,20,02,36,10.00
2012,09,20,02,37,10.00
2012,09,20,02,38,10.10
2012,09,20,02,39,10.00
2012,09,20,02,40,10.00
2012,09,20,02,41,10.00
2012,09,20,02,42,10.00
2012,09,20,02,43,10.00
2012,09,20,02,44,10.00
2012,09,20,02,45,10.00
2012,09,20,02,46,10.00
2012,09,20,02,47,10.00
2012,09,20,02,48,9.90
2012,09,20,02,49,9.90
2012,09,20,02,50,9.90
2012,09,20,02,51,9.90
2012,09,20,02,52,9.90
2012,09,20,02,53,9.90
2012,09,20,02,54,9.90
2012,09,20,02,55,9.90
2012,09,20,02,56,9.90
2012,09,20,02,57,9.90
2012,09,20,02,58,9.90
2012,09,20,02,59,9.90
2012,09,20,03,00,9.90
2012,09,20,03,01,9.80
2012,09,20,03,02,9.80
2012,09,20,03,03,9.80
2012,09,20,03,06,9.80
2012,09,20,03,07,9.80
2012,09,20,03,08,9.80
2012,09,20,03,09,9.80
2012,09,20,03,10,9.80
2012,09,20,03,11,9.80
2012,09,20,03,12,9.80
2012,09,20,03,13,9.80
2012,09,20,03,14,9.80
2012,09,20,03,15,9.80
2012,09,20,03,16,9.80
2012,09,20,03,17,9.80
2012,09,20,03,18,9.80
2012,09,20,03,19,9.80
2012,09,20,03,20,9.80
2012,09,20,03,21,9.80
2012,09,20,03,22,9.80
2012,09,20,03,23,9.80
2012,09,20,03,24,9.70
2012,09,20,03,25,9.70
2012,09,20,03,26,9.70
2012,09,20,03,27,9.70
2012,09,20,03,28,9.70
2012,09,20,03,29,9.70
2012,09,20,03,30,9.70
2012,09,20,03,31,9.70
2012,09,20,03,32,9.80
2012,09,20,03,33,9.80
2012,09,20,03,34,9.80
2012,09,20,03,35,9.80
2012,09,20,03,36,9.80
2012,09,20,03,37,9.80
2012,09,20,03,38,9.80
2012,09,20,03,39,9.80
2012,09,20,03,40,9.70
2012,09,20,03,41,9.70
2012,09,20,03,42,9.70
2012,09,20,03,43,9.70
2012,09,20,03,44,9.70
2012,09,20,03,45,9.70
2012,09,20,03,46,9.70
2012,09,20,03,47,9.70
2012,09,20,03,48,9.70
2012,09,20,03,49,9.70
2012,09,20,03,50,9.70
2012,09,20,03,51,9.70
2012,09,20,03,52,9.70
2012,09,20,03,53,9.70
2012,09,20,03,54,9.70
2012,09,20,03,55,9.70
2012,09,20,03,56,9.70
2012,09,20,03,57,9.70
2012,09,20,03,58,9.70
2012,09,20,03,59,9.70
2012,09,20,04,00,9.70
2012,09,20,04,01,9.70
2012,09,20,04,02,9.70
2012,09,20,04,03,9.70
2012,09,20,04,04,9.70
2012,09,20,04,05,9.70
2012,09,20,04,06,9.70
2012,09,20,04,07,9.80
2012,09,20,04,08,9.70
2012,09,20,04,09,9.80
2012,09,20,04,10,9.70
2012,09,20,04,11,9.70
2012,09,20,04,12,9.70
2012,09,20,04,13,9.70
2012,09,20,04,14,9.70
2012,09,20,04,15,9.70
2012,09,20,04,16,9.70
2012,09,20,04,17,9.70
2012,09,20,04,18,9.70
2012,09,20,04,19,9.70
2012,09,20,04,20,9.70
2012,09,20,04,21,9.70
2012,09,20,04,22,9.70
2012,09,20,04,23,9.70
2012,09,20,04,24,9.70
2012,09,20,04,25,9.70
2012,09,20,04,26,9.70
2012,09,20,04,27,9.70
2012,09,20,04,28,9.70
2012,09,20,04,29,9.70
2012,09,20,04,30,9.70
2012,09,20,04,31,9.70
2012,09,20,04,32,9.70
2012,09,20,04,33,9.60
2012,09,20,04,34,9.60
2012,09,20,04,35,9.60
2012,09,20,04,36,9.60
2012,09,20,04,37,9.60
2012,09,20,04,38,9.60
2012,09,20,04,39,9.60
2012,09,20,04,40,9.60
2012,09,20,04,41,9.60
2012,09,20,04,42,9.60
2012,09,20,04,43,9.60
2012,09,20,04,44,9.60
2012,09,20,04,45,9.60
2012,09,20,04,46,9.60
2012,09,20,04,47,9.60
2012,09,20,04,48,9.60
2012,09,20,04,49,9.60
2012,09,20,04,50,9.50
2012,09,20,04,51,9.50
2012,09,20,04,52,9.50
2012,09,20,04,53,9.60
2012,09,20,04,54,9.60
2012,09,20,04,55,9.60
2012,09,20,04,56,9.60
2012,09,20,04,57,9.60
2012,09,20,04,58,9.60
2012,09,20,04,59,9.60
2012,09,20,05,00,9.60
2012,09,20,05,01,9.60
2012,09,20,05,02,9.60
2012,09,20,05,03,9.50
2012,09,20,05,04,9.50
2012,09,20,05,05,9.50
2012,09,20,05,06,9.40
2012,09,20,05,07,9.40
2012,09,20,05,08,9.40
2012,09,20,05,09,9.40
2012,09,20,05,10,9.40
2012,09,20,05,11,9.40
2012,09,20,05,12,9.50
2012,09,20,05,13,9.50
2012,09,20,05,14,9.50
2012,09,20,05,15,9.50
2012,09,20,05,16,9.50
2012,09,20,05,17,9.50
2012,09,20,05,18,9.50
2012,09,20,05,19,9.50
2012,09,20,05,20,9.50
2012,09,20,05,21,9.40
2012,09,20,05,22,9.40
2012,09,20,05,23,9.40
2012,09,20,05,24,9.40
2012,09,20,05,25,9.40
2012,09,20,05,26,9.40
2012,09,20,05,27,9.40
2012,09,20,05,28,9.40
2012,09,20,05,29,9.40
2012,09,20,05,30,9.40
2012,09,20,05,31,9.40
2012,09,20,05,32,9.40
2012,09,20,05,33,9.40
2012,09,20,05,34,9.40
2012,09,20,05,35,9.40
2012,09,20,05,36,9.40
2012,09,20,05,37,9.50
2012,09,20,05,38,9.50
2012,09,20,05,39,9.60
2012,09,20,05,40,9.60
2012,09,20,05,41,9.70
2012,09,20,05,42,9.70
2012,09,20,05,43,9.70
2012,09,20,05,44,9.70
2012,09,20,05,45,9.60
2012,09,20,05,46,9.60
2012,09,20,05,47,9.60
2012,09,20,05,48,9.50
2012,09,20,05,49,9.50
2012,09,20,05,50,9.50
2012,09,20,05,51,9.40
2012,09,20,05,52,9.40
2012,09,20,05,53,9.40
2012,09,20,05,54,9.40
2012,09,20,05,55,9.30
2012,09,20,05,56,9.30
2012,09,20,05,57,9.30
2012,09,20,05,58,9.30
2012,09,20,05,59,9.30
2012,09,20,06,00,9.30
2012,09,20,06,01,9.30
2012,09,20,06,02,9.30
2012,09,20,06,03,9.30
2012,09,20,06,04,9.30
2012,09,20,06,05,9.30
2012,09,20,06,06,9.30
2012,09,20,06,07,9.30
2012,09,20,06,08,9.30
2012,09,20,06,09,9.30
2012,09,20,06,10,9.30
2012,09,20,06,11,9.30
2012,09,20,06,12,9.30
2012,09,20,06,13,9.30
2012,09,20,06,14,9.30
2012,09,20,06,15,9.40
2012,09,20,06,16,9.40
2012,09,20,06,17,9.40
2012,09,20,06,18,9.50
2012,09,20,06,19,9.50
2012,09,20,06,20,9.50
2012,09,20,06,21,9.50
2012,09,20,06,22,9.50
2012,09,20,06,23,9.50
2012,09,20,06,24,9.50
2012,09,20,06,25,9.50
2012,09,20,06,26,9.50
2012,09,20,06,27,9.50
2012,09,20,06,28,9.50
2012,09,20,06,29,9.40
2012,09,20,06,30,9.50
2012,09,20,06,31,9.40
2012,09,20,06,32,9.40
2012,09,20,06,33,9.40
2012,09,20,06,34,9.40
2012,09,20,06,35,9.40
2012,09,20,06,36,9.40
2012,09,20,06,37,9.40
2012,09,20,06,38,9.40
2012,09,20,06,39,9.30
2012,09,20,06,40,9.30
2012,09,20,06,41,9.30
2012,09,20,06,42,9.30
2012,09,20,06,43,9.30
2012,09,20,06,44,9.20
2012,09,20,06,45,9.20
2012,09,20,06,46,9.20
2012,09,20,06,47,9.20
2012,09,20,06,48,9.20
2012,09,20,06,49,9.20
2012,09,20,06,50,9.20
2012,09,20,06,51,9.10
2012,09,20,06,52,9.10
2012,09,20,06,53,9.10
2012,09,20,06,54,9.10
2012,09,20,06,55,9.10
2012,09,20,06,56,9.10
2012,09,20,06,57,9.10
2012,09,20,06,58,9.10
2012,09,20,06,59,9.20
2012,09,20,07,00,9.20
2012,09,20,07,01,9.20
2012,09,20,07,02,9.20
2012,09,20,07,03,9.20
2012,09,20,07,04,9.30
2012,09,20,07,05,9.30
2012,09,20,07,06,9.30
2012,09,20,07,07,9.30
2012,09,20,07,08,9.30
2012,09,20,07,09,9.30
2012,09,20,07,10,9.30
2012,09,20,07,11,9.30
2012,09,20,07,12,9.30
2012,09,20,07,13,9.30
2012,09,20,07,14,9.30
2012,09,20,07,15,9.30
2012,09,20,07,16,9.30
2012,09,20,07,17,9.30
2012,09,20,07,18,9.30
2012,09,20,07,19,9.30
2012,09,20,07,20,9.30
2012,09,20,07,21,9.30
2012,09,20,07,22,9.30
2012,09,20,07,23,9.20
2012,09,20,07,24,9.30
2012,09,20,07,25,9.30
2012,09,20,07,26,9.30
2012,09,20,07,27,9.30
2012,09,20,07,28,9.30
2012,09,20,07,29,9.30
2012,09,20,07,30,9.30
2012,09,20,07,31,9.30
2012,09,20,07,32,9.30
2012,09,20,07,33,9.30
2012,09,20,07,34,9.30
2012,09,20,07,35,9.30
2012,09,20,07,36,9.30
2012,09,20,07,37,9.30
2012,09,20,07,38,9.30
2012,09,20,07,39,9.30
2012,09,20,07,40,9.30
2012,09,20,07,41,9.30
2012,09,20,07,42,9.40
2012,09,20,07,43,9.40
2012,09,20,07,44,9.40
2012,09,20,07,45,9.40
2012,09,20,07,46,9.40
2012,09,20,07,47,9.50
2012,09,20,07,48,9.50
2012,09,20,07,49,9.50
2012,09,20,07,50,9.60
2012,09,20,07,51,9.60
2012,09,20,07,52,9.60
2012,09,20,07,53,9.70
2012,09,20,07,54,9.70
2012,09,20,07,55,9.70
2012,09,20,07,56,9.70
2012,09,20,07,57,9.80
2012,09,20,07,58,9.80
2012,09,20,07,59,9.80
2012,09,20,08,00,9.90
2012,09,20,08,01,9.90
2012,09,20,08,02,9.90
2012,09,20,08,03,9.90
2012,09,20,08,04,10.00
2012,09,20,08,05,10.00
2012,09,20,08,06,10.00
2012,09,20,08,07,10.10
2012,09,20,08,08,10.10
2012,09,20,08,09,10.10
2012,09,20,08,10,10.20
2012,09,20,08,11,10.20
2012,09,20,08,12,10.20
2012,09,20,08,13,10.30
2012,09,20,08,14,10.30
2012,09,20,08,15,10.40
2012,09,20,08,16,10.40
2012,09,20,08,17,10.40
2012,09,20,08,18,10.50
2012,09,20,08,19,10.50
2012,09,20,08,20,10.60
2012,09,20,08,21,10.60
2012,09,20,08,22,10.60
2012,09,20,08,23,10.70
2012,09,20,08,24,10.70
2012,09,20,08,25,10.70
2012,09,20,08,26,10.80
2012,09,20,08,27,10.80
2012,09,20,08,28,10.80
2012,09,20,08,29,10.90
2012,09,20,08,30,10.90
2012,09,20,08,31,10.90
2012,09,20,08,32,11.00
2012,09,20,08,33,11.00
2012,09,20,08,34,11.00
2012,09,20,08,35,11.10
2012,09,20,08,36,11.10
2012,09,20,08,37,11.10
2012,09,20,08,38,11.10
2012,09,20,08,39,11.20
2012,09,20,08,40,11.20
2012,09,20,08,41,11.20
2012,09,20,08,42,11.30
2012,09,20,08,43,11.30
2012,09,20,08,44,11.40
2012,09,20,08,45,11.40
2012,09,20,08,46,11.50
2012,09,20,08,47,11.50
2012,09,20,08,48,11.60
2012,09,20,08,49,11.60
2012,09,20,08,50,11.60
2012,09,20,08,51,11.70
2012,09,20,08,52,11.70
2012,09,20,08,53,11.70
2012,09,20,08,54,11.80
2012,09,20,08,55,11.90
2012,09,20,08,56,11.90
2012,09,20,08,57,12.00
2012,09,20,08,58,12.00
2012,09,20,08,59,12.10
2012,09,20,09,00,12.10
2012,09,20,09,01,12.10
2012,09,20,09,02,12.20
2012,09,20,09,03,12.20
2012,09,20,09,04,12.20
2012,09,20,09,05,12.30
2012,09,20,09,06,12.30
2012,09,20,09,07,12.40
2012,09,20,09,08,12.40
2012,09,20,09,09,12.50
2012,09,20,09,10,12.50
2012,09,20,09,11,12.60
2012,09,20,09,12,12.60
2012,09,20,09,13,12.70
2012,09,20,09,14,12.80
2012,09,20,09,15,12.80
2012,09,20,09,16,12.90
2012,09,20,09,17,13.00
2012,09,20,09,18,13.00
2012,09,20,09,19,13.10
2012,09,20,09,20,13.20
2012,09,20,09,21,13.30
2012,09,20,09,22,13.30
2012,09,20,09,23,13.40
2012,09,20,09,24,13.50
2012,09,20,09,25,13.60
2012,09,20,09,26,13.60
2012,09,20,09,27,13.70
2012,09,20,09,28,13.80
2012,09,20,09,29,13.80
2012,09,20,09,30,13.90
2012,09,20,09,31,14.00
2012,09,20,09,32,14.10
2012,09,20,09,33,14.20
2012,09,20,09,34,14.30
2012,09,20,09,35,14.30
2012,09,20,09,36,14.40
2012,09,20,09,37,14.40
2012,09,20,09,38,14.50
2012,09,20,09,39,14.60
2012,09,20,09,40,14.70
2012,09,20,09,41,14.70
2012,09,20,09,42,14.80
2012,09,20,09,43,14.80
2012,09,20,09,44,14.90
2012,09,20,09,45,15.00
2012,09,20,09,46,15.10
2012,09,20,09,47,15.20
2012,09,20,09,48,15.20
2012,09,20,09,49,15.30
2012,09,20,09,50,15.40
2012,09,20,09,51,15.50
2012,09,20,09,52,15.60
2012,09,20,09,53,15.70
2012,09,20,09,54,15.80
2012,09,20,09,55,15.90
2012,09,20,09,56,16.00
2012,09,20,09,57,16.10
2012,09,20,09,58,16.20
2012,09,20,09,59,16.30
2012,09,20,10,00,16.40
2012,09,20,10,01,16.50
2012,09,20,10,02,16.60
2012,09,20,10,03,16.70
2012,09,20,10,04,16.80
2012,09,20,10,05,16.90
2012,09,20,10,06,17.00
2012,09,20,10,07,17.10
2012,09,20,10,08,17.20
2012,09,20,10,09,17.30
2012,09,20,10,10,17.40
2012,09,20,10,11,17.50
2012,09,20,10,12,17.60
2012,09,20,10,13,17.70
2012,09,20,10,14,17.80
2012,09,20,10,15,17.80
2012,09,20,10,16,18.00
2012,09,20,10,17,18.10
2012,09,20,10,18,18.20
2012,09,20,10,19,18.40
2012,09,20,10,20,18.50
2012,09,20,10,21,18.60
2012,09,20,10,22,18.70
2012,09,20,10,23,18.80
2012,09,20,10,24,18.90
2012,09,20,10,25,18.90
2012,09,20,10,26,18.90
2012,09,20,10,27,18.90
2012,09,20,10,28,18.90
2012,09,20,10,29,18.80
2012,09,20,10,30,18.80
2012,09,20,10,31,18.80
2012,09,20,10,32,18.70
2012,09,20,10,33,18.60
2012,09,20,10,34,18.60
2012,09,20,10,35,18.50
2012,09,20,10,36,18.50
2012,09,20,10,37,18.40
2012,09,20,10,38,18.30
2012,09,20,10,39,18.30
2012,09,20,10,40,18.30
2012,09,20,10,41,18.30
2012,09,20,10,42,18.30
2012,09,20,10,43,18.30
2012,09,20,10,44,18.40
2012,09,20,10,45,18.40
2012,09,20,10,46,18.50
2012,09,20,10,47,18.50
2012,09,20,10,48,18.60
2012,09,20,10,49,18.60
2012,09,20,10,50,18.60
2012,09,20,10,51,18.70
2012,09,20,10,52,18.70
2012,09,20,10,53,18.70
2012,09,20,10,54,18.70
2012,09,20,10,55,18.60
2012,09,20,10,56,18.60
2012,09,20,10,57,18.60
2012,09,20,10,58,18.50
2012,09,20,10,59,18.50
2012,09,20,11,00,18.40
2012,09,20,11,01,18.40
2012,09,20,11,02,18.40
2012,09,20,11,03,18.40
2012,09,20,11,04,18.40
2012,09,20,11,05,18.40
2012,09,20,11,06,18.40
2012,09,20,11,07,18.40
2012,09,20,11,08,18.40
2012,09,20,11,09,18.40
2012,09,20,11,10,18.40
2012,09,20,11,11,18.50
2012,09,20,11,12,18.50
2012,09,20,11,13,18.60
2012,09,20,11,14,18.60
2012,09,20,11,15,18.60
2012,09,20,11,16,18.60
2012,09,20,11,17,18.50
2012,09,20,11,18,18.50
2012,09,20,11,19,18.50
2012,09,20,11,20,18.50
2012,09,20,11,21,18.60
2012,09,20,11,22,18.60
2012,09,20,11,23,18.60
2012,09,20,11,24,18.70
2012,09,20,11,25,18.70
2012,09,20,11,26,18.70
2012,09,20,11,27,18.80
2012,09,20,11,28,18.80
2012,09,20,11,29,18.90
2012,09,20,11,30,19.00
2012,09,20,11,31,19.10
2012,09,20,11,32,19.10
2012,09,20,11,33,19.10
2012,09,20,11,34,19.20
2012,09,20,11,35,19.30
2012,09,20,11,36,19.30
2012,09,20,11,37,19.40
2012,09,20,11,38,19.40
2012,09,20,11,39,19.50
2012,09,20,11,40,19.50
2012,09,20,11,41,19.60
2012,09,20,11,42,19.60
2012,09,20,11,43,19.70
2012,09,20,11,44,19.80
2012,09,20,11,45,19.90
2012,09,20,11,46,19.90
2012,09,20,11,47,20.00
2012,09,20,11,48,20.10
2012,09,20,11,49,20.20
2012,09,20,11,50,20.30
2012,09,20,11,51,20.40
2012,09,20,11,52,20.50
2012,09,20,11,53,20.60
2012,09,20,11,54,20.70
2012,09,20,11,55,20.90
2012,09,20,11,56,21.00
2012,09,20,11,57,21.10
2012,09,20,11,58,21.20
2012,09,20,11,59,21.30
2012,09,20,12,00,21.30
2012,09,20,12,01,21.40
2012,09,20,12,02,21.50
2012,09,20,12,03,21.50
2012,09,20,12,04,21.60
2012,09,20,12,05,21.60
2012,09,20,12,06,21.60
2012,09,20,12,07,21.50
2012,09,20,12,08,21.30
2012,09,20,12,09,21.20
2012,09,20,12,10,21.20
2012,09,20,12,11,21.00
2012,09,20,12,12,20.90
2012,09,20,12,13,20.80
2012,09,20,12,14,20.60
2012,09,20,12,15,20.50
2012,09,20,12,16,20.40
2012,09,20,12,17,20.30
2012,09,20,12,18,20.20
2012,09,20,12,19,20.20
2012,09,20,12,20,20.10
2012,09,20,12,21,20.10
2012,09,20,12,22,20.10
2012,09,20,12,23,20.10
2012,09,20,12,24,20.10
2012,09,20,12,25,20.00
2012,09,20,12,26,20.00
2012,09,20,12,27,19.90
2012,09,20,12,28,19.90
2012,09,20,12,29,19.90
2012,09,20,12,30,19.90
2012,09,20,12,31,20.00
2012,09,20,12,32,20.00
2012,09,20,12,33,20.10
2012,09,20,12,34,20.10
2012,09,20,12,35,20.20
2012,09,20,12,36,20.20
2012,09,20,12,37,20.20
2012,09,20,12,38,20.20
2012,09,20,12,39,20.20
2012,09,20,12,40,20.10
2012,09,20,12,41,20.10
2012,09,20,12,42,20.10
2012,09,20,12,43,20.10
2012,09,20,12,44,20.10
2012,09,20,12,45,20.20
2012,09,20,12,46,20.20
2012,09,20,12,47,20.30
2012,09,20,12,48,20.30
2012,09,20,12,49,20.30
2012,09,20,12,50,20.40
2012,09,20,12,51,20.40
2012,09,20,12,52,20.40
2012,09,20,12,53,20.40
2012,09,20,12,54,20.40
2012,09,20,12,55,20.40
2012,09,20,12,56,20.30
2012,09,20,12,57,20.20
2012,09,20,12,58,20.10
2012,09,20,12,59,20.00
2012,09,20,13,00,20.00
2012,09,20,13,01,20.00
2012,09,20,13,02,19.90
2012,09,20,13,03,19.90
2012,09,20,13,04,19.90
2012,09,20,13,05,19.90
2012,09,20,13,06,19.90
2012,09,20,13,07,20.00
2012,09,20,13,08,20.10
2012,09,20,13,09,20.10
2012,09,20,13,10,20.10
2012,09,20,13,11,20.10
2012,09,20,13,12,20.20
2012,09,20,13,13,20.20
2012,09,20,13,14,20.10
2012,09,20,13,15,20.00
2012,09,20,13,16,19.90
2012,09,20,13,17,19.80
2012,09,20,13,18,19.80
2012,09,20,13,19,19.70
2012,09,20,13,20,19.70
2012,09,20,13,21,19.70
2012,09,20,13,22,19.70
2012,09,20,13,23,19.60
2012,09,20,13,24,19.60
2012,09,20,13,25,19.60
2012,09,20,13,26,19.60
2012,09,20,13,27,19.60
2012,09,20,13,28,19.60
2012,09,20,13,29,19.60
2012,09,20,13,30,19.60
2012,09,20,13,31,19.60
2012,09,20,13,32,19.60
2012,09,20,13,33,19.60
2012,09,20,13,34,19.60
2012,09,20,13,35,19.60
2012,09,20,13,36,19.60
2012,09,20,13,37,19.60
2012,09,20,13,38,19.60
2012,09,20,13,39,19.60
2012,09,20,13,40,19.60
2012,09,20,13,41,19.60
2012,09,20,13,42,19.60
2012,09,20,13,43,19.60
2012,09,20,13,44,19.60
2012,09,20,13,45,19.60
2012,09,20,13,46,19.60
2012,09,20,13,47,19.60
2012,09,20,13,48,19.60
2012,09,20,13,49,19.60
2012,09,20,13,50,19.60
2012,09,20,13,51,19.60
2012,09,20,13,52,19.60
2012,09,20,13,53,19.60
2012,09,20,13,54,19.70
2012,09,20,13,55,19.70
2012,09,20,13,56,19.70
2012,09,20,13,57,19.70
2012,09,20,13,58,19.80
2012,09,20,13,59,19.80
2012,09,20,14,00,19.80
2012,09,20,14,01,19.80
2012,09,20,14,02,19.80
2012,09,20,14,03,19.80
2012,09,20,14,04,19.80
2012,09,20,14,05,19.80
2012,09,20,14,06,19.80
2012,09,20,14,07,19.90
2012,09,20,14,08,20.00
2012,09,20,14,09,20.00
2012,09,20,14,10,20.10
2012,09,20,14,11,20.20
2012,09,20,14,12,20.20
2012,09,20,14,13,20.30
2012,09,20,14,14,20.40
2012,09,20,14,15,20.40
2012,09,20,14,16,20.50
2012,09,20,14,17,20.60
2012,09,20,14,18,20.70
2012,09,20,14,19,20.70
2012,09,20,14,20,20.80
2012,09,20,14,21,20.80
2012,09,20,14,22,20.90
2012,09,20,14,23,20.90
2012,09,20,14,24,21.00
2012,09,20,14,25,21.00
2012,09,20,14,26,21.10
2012,09,20,14,27,21.10
2012,09,20,14,28,21.10
2012,09,20,14,29,21.00
2012,09,20,14,30,20.80
2012,09,20,14,31,20.70
2012,09,20,14,32,20.70
2012,09,20,14,33,20.60
2012,09,20,14,34,20.50
2012,09,20,14,35,20.40
2012,09,20,14,36,20.30
2012,09,20,14,37,20.30
2012,09,20,14,38,20.30
2012,09,20,14,39,20.30
2012,09,20,14,40,20.20
2012,09,20,14,41,20.20
2012,09,20,14,42,20.20
2012,09,20,14,43,20.20
2012,09,20,14,44,20.20
2012,09,20,14,45,20.10
2012,09,20,14,46,20.10
2012,09,20,14,47,20.10
2012,09,20,14,48,20.10
2012,09,20,14,49,20.10
2012,09,20,14,50,20.10
2012,09,20,14,51,20.10
2012,09,20,14,52,20.10
2012,09,20,14,53,20.20
2012,09,20,14,54,20.20
2012,09,20,14,55,20.20
2012,09,20,14,56,20.30
2012,09,20,14,57,20.30
2012,09,20,14,58,20.40
2012,09,20,14,59,20.40
2012,09,20,15,00,20.50
2012,09,20,15,01,20.60
2012,09,20,15,02,20.60
2012,09,20,15,03,20.60
2012,09,20,15,04,20.60
2012,09,20,15,05,20.70
2012,09,20,15,06,20.70
2012,09,20,15,07,20.70
2012,09,20,15,08,20.70
2012,09,20,15,09,20.70
2012,09,20,15,10,20.70
2012,09,20,15,11,20.80
2012,09,20,15,12,20.80
2012,09,20,15,13,20.70
2012,09,20,15,14,20.60
2012,09,20,15,15,20.60
2012,09,20,15,16,20.50
2012,09,20,15,17,20.40
2012,09,20,15,18,20.30
2012,09,20,15,19,20.30
2012,09,20,15,20,20.20
2012,09,20,15,21,20.20
2012,09,20,15,22,20.20
2012,09,20,15,23,20.20
2012,09,20,15,24,20.30
2012,09,20,15,25,20.30
2012,09,20,15,26,20.30
2012,09,20,15,27,20.30
2012,09,20,15,28,20.40
2012,09,20,15,29,20.40
2012,09,20,15,30,20.40
2012,09,20,15,31,20.40
2012,09,20,15,32,20.30
2012,09,20,15,33,20.30
2012,09,20,15,34,20.20
2012,09,20,15,35,20.10
2012,09,20,15,36,20.00
2012,09,20,15,37,20.00
2012,09,20,15,38,19.90
2012,09,20,15,39,19.90
2012,09,20,15,40,19.90
2012,09,20,15,41,19.90
2012,09,20,15,42,19.90
2012,09,20,15,43,19.80
2012,09,20,15,44,19.70
2012,09,20,15,45,19.60
2012,09,20,15,46,19.50
2012,09,20,15,47,19.40
2012,09,20,15,48,19.40
2012,09,20,15,49,19.30
2012,09,20,15,50,19.30
2012,09,20,15,51,19.40
2012,09,20,15,52,19.40
2012,09,20,15,53,19.40
2012,09,20,15,54,19.40
2012,09,20,15,55,19.40
2012,09,20,15,56,19.50
2012,09,20,15,57,19.50
2012,09,20,15,58,19.60
2012,09,20,15,59,19.60
2012,09,20,16,00,19.70
2012,09,20,16,01,19.70
2012,09,20,16,02,19.70
2012,09,20,16,03,19.80
2012,09,20,16,04,19.80
2012,09,20,16,05,19.80
2012,09,20,16,06,19.80
2012,09,20,16,07,19.90
2012,09,20,16,08,19.90
2012,09,20,16,09,19.90
2012,09,20,16,10,19.90
2012,09,20,16,11,19.90
2012,09,20,16,12,19.90
2012,09,20,16,13,19.90
2012,09,20,16,14,19.90
2012,09,20,16,15,19.90
2012,09,20,16,16,19.90
2012,09,20,16,17,19.90
2012,09,20,16,18,20.00
2012,09,20,16,19,20.00
2012,09,20,16,20,19.90
2012,09,20,16,21,19.90
2012,09,20,16,22,19.80
2012,09,20,16,23,19.70
2012,09,20,16,24,19.70
2012,09,20,16,25,19.60
2012,09,20,16,26,19.50
2012,09,20,16,27,19.40
2012,09,20,16,28,19.40
2012,09,20,16,29,19.40
2012,09,20,16,30,19.40
2012,09,20,16,31,19.40
2012,09,20,16,32,19.40
2012,09,20,16,33,19.40
2012,09,20,16,34,19.40
2012,09,20,16,35,19.40
2012,09,20,16,36,19.40
2012,09,20,16,37,19.40
2012,09,20,16,38,19.50
2012,09,20,16,39,19.50
2012,09,20,16,40,19.50
2012,09,20,16,41,19.50
2012,09,20,16,42,19.60
2012,09,20,16,43,19.60
2012,09,20,16,44,19.60
2012,09,20,16,45,19.70
2012,09,20,16,46,19.70
2012,09,20,16,47,19.70
2012,09,20,16,48,19.70
2012,09,20,16,49,19.70
2012,09,20,16,50,19.70
2012,09,20,16,51,19.70
2012,09,20,16,52,19.70
2012,09,20,16,53,19.60
2012,09,20,16,54,19.60
2012,09,20,16,55,19.60
2012,09,20,16,56,19.50
2012,09,20,16,57,19.50
2012,09,20,16,58,19.40
2012,09,20,16,59,19.40
2012,09,20,17,00,19.40
2012,09,20,17,01,19.40
2012,09,20,17,02,19.40
2012,09,20,17,03,19.40
2012,09,20,17,04,19.30
2012,09,20,17,05,19.30
2012,09,20,17,06,19.30
2012,09,20,17,07,19.20
2012,09,20,17,08,19.20
2012,09,20,17,09,19.10
2012,09,20,17,10,19.00
2012,09,20,17,11,19.00
2012,09,20,17,12,18.90
2012,09,20,17,13,18.90
2012,09,20,17,14,18.90
2012,09,20,17,15,18.90
2012,09,20,17,16,18.80
2012,09,20,17,17,18.80
2012,09,20,17,18,18.80
2012,09,20,17,19,18.80
2012,09,20,17,20,18.80
2012,09,20,17,21,18.80
2012,09,20,17,22,18.80
2012,09,20,17,23,18.80
2012,09,20,17,24,18.70
2012,09,20,17,25,18.70
2012,09,20,17,26,18.70
2012,09,20,17,27,18.70
2012,09,20,17,28,18.60
2012,09,20,17,29,18.60
2012,09,20,17,30,18.50
2012,09,20,17,31,18.40
2012,09,20,17,32,18.30
2012,09,20,17,33,18.20
2012,09,20,17,34,18.20
2012,09,20,17,35,18.10